Torna al catalogo

NUSAT-41

C PAYNE-G

AttivoScienzaSSO
NORAD 56944·PAYLOAD·🇦🇷 Argentina

Lanciato Jun 12, 2023 da Vandenberg Space Force Base

Loading…

Prossimi Passaggi (prossime 24 ore)

TLE

AggiornatoSource: Space-Track

Epoca: Sep 14, 2026, 14:11 UTC

1 56944U 23084N   26257.59152986  .00007477  00000-0  25727-3 0  9993
2 56944  97.5644  35.8183 0007580  14.0855 346.0595 15.30341425181455

Traccia NUSAT-41 in tempo reale con AllMySat

Download on the App Store